Weather History for KLVK - August, 2012

Change the Weather History Date:

Saturday, August 4, 2012

  Actual Average Record
Temperature  
Mean Temperature 66 °F 73 °F  
Max Temperature 77 °F 88 °F 110 °F (1998)
Min Temperature 55 °F 57 °F 43 °F (1972)
Degree Days  
Heating Degree Days 0 0  
Month to date heating degree days 0 0  
Since 1 June heating degree days 37 36  
Since 1 July heating degree days 0 4  
Cooling Degree Days 1 8  
Month to date cooling degree days 30 32  
Year to date cooling degree days 451 426  
Since 1 June cooling degree days 377 373  
Growing Degree Days 16 (Base 50)    
Moisture  
Dew Point 53 °F    
Average Humidity 65    
Maximum Humidity 86    
Minimum Humidity 43    
Precipitation  
Precipitation 0.00 in 0.00 in 0.01 in (1953)
Month to date precipitation 0.00 0.00  
Year to date precipitation 7.06 9.90  
Since 1 July precipitation 0.00 T  
Sea Level Pressure  
Sea Level Pressure 29.89 in    
Wind  
Wind Speed 10 mph (WNW)    
Max Wind Speed 21 mph    
Max Gust Speed 24 mph    
Visibility 10 miles    
Events      
T = Trace of Precipitation, MM = Missing Value Source: NWS Daily Summary

Daily Weather History Graph

Daily Weather History Graph

Search for Another Location

Airport or City:

Trip Planner

Search our weather history database for the weather conditions in past years. The results will help you decide how hot, cold, wet, or windy it might be!

Date:

Astronomy

Aug. 04, 2012 Rise Set
Actual Time 6:13 AM PDT 8:12 PM PDT
Civil Twilight 5:45 AM PDT 8:40 PM PDT
Nautical Twilight 5:10 AM PDT 9:15 PM PDT
Astronomical Twilight 4:32 AM PDT 9:53 PM PDT
Moon 9:28 PM PDT (8/4) 9:02 AM PDT (8/4)
Length of Visible Light 14h 55m
Length of Day
13h 58m
Waning Gibbous, 92% of the Moon is Illuminated
Aug 4
Waning Gibbous
Aug 9
Last Quarter
Aug 17
New
Aug 24
First Quarter
Aug 31
Full

Hourly Weather History & Observations

Time (PDT) Temp. Dew Point Humidity Pressure Visibility Wind Dir Wind Speed Gust Speed Precip Events Conditions
12:53 AM 57.9 °F 52.0 °F 81% 29.83 in 10.0 mi NW 8.1 mph - N/A   Clear
1:53 AM 57.0 °F 52.0 °F 83% 29.84 in 10.0 mi WNW 8.1 mph - N/A   Clear
2:53 AM 57.0 °F 52.0 °F 83% 29.83 in 10.0 mi NW 6.9 mph - N/A   Clear
3:53 AM 57.0 °F 52.0 °F 83% 29.85 in 10.0 mi Variable 3.5 mph - N/A   Partly Cloudy
4:53 AM 57.0 °F 52.0 °F 83% 29.85 in 10.0 mi WNW 6.9 mph - N/A   Clear
5:53 AM 55.0 °F 52.0 °F 89% 29.87 in 10.0 mi WNW 6.9 mph - N/A   Partly Cloudy
6:53 AM 55.9 °F 52.0 °F 87% 29.88 in 10.0 mi NW 8.1 mph - N/A   Clear
6:57 AM 55.4 °F 51.8 °F 88% 29.88 in 10.0 mi NW 8.1 mph - N/A   Partly Cloudy
7:53 AM 57.0 °F 53.1 °F 87% 29.87 in 10.0 mi WNW 12.7 mph - N/A   Partly Cloudy
8:53 AM 59.0 °F 53.1 °F 81% 29.89 in 10.0 mi West 9.2 mph - N/A   Partly Cloudy
9:53 AM 62.1 °F 53.1 °F 72% 29.89 in 10.0 mi WNW 6.9 mph - N/A   Clear
9:54 AM 62.6 °F 53.6 °F 72% 29.89 in 10.0 mi WNW 8.1 mph - N/A   Clear
11:53 AM 66.9 °F 53.1 °F 61% 29.90 in 10.0 mi WNW 9.2 mph - N/A   Clear
12:53 PM 73.0 °F 54.0 °F 51% 29.91 in 10.0 mi Variable 6.9 mph - N/A   Clear
1:53 PM 72.0 °F 54.0 °F 53% 29.90 in 10.0 mi WNW 15.0 mph - N/A   Clear
2:53 PM 77.0 °F 54.0 °F 45% 29.89 in 10.0 mi WNW 16.1 mph - N/A   Clear
3:53 PM 71.1 °F 54.0 °F 55% 29.89 in 10.0 mi NW 16.1 mph - N/A   Clear
4:53 PM 66.9 °F 54.0 °F 63% 29.91 in 10.0 mi NW 13.8 mph - N/A   Mostly Cloudy
5:53 PM 69.1 °F 54.0 °F 58% 29.89 in 10.0 mi WNW 12.7 mph - N/A   Clear
6:53 PM 66.0 °F 54.0 °F 65% 29.88 in 10.0 mi WNW 11.5 mph - N/A   Clear
7:53 PM 64.9 °F 54.0 °F 68% 29.89 in 10.0 mi WNW 11.5 mph - N/A   Clear
8:53 PM 62.1 °F 55.0 °F 78% 29.92 in 10.0 mi WNW 11.5 mph - N/A   Clear
9:53 PM 60.1 °F 55.9 °F 86% 29.93 in 10.0 mi WNW 10.4 mph - N/A   Clear
10:53 PM 60.1 °F 55.0 °F 83% 29.97 in 10.0 mi WNW 9.2 mph - N/A   Clear
11:34 PM 60.8 °F 55.4 °F 82% 29.98 in 10.0 mi WNW 9.2 mph - N/A   Partly Cloudy
11:53 PM 60.1 °F 55.0 °F 83% 29.98 in 10.0 mi West 10.4 mph - N/A   Mostly Cloudy